Location: Ferintosh
(52.7647°N, 112.9692°W)
Time: 15:53:38
(UTC+00:00)

Transit 2A Rocket - Pass Details

Date: 23 May 2024
Orbit: 583 x 910 km, 66.7° (Epoch: 22 June)

Event Time Altitude Azimuth Distance (km) Brightness Sun altitude
Rises 17:59:07 0° 318° (NW) 3,342 8.0 53.7°
Reaches altitude 10° 18:01:37 10° 326° (NW) 2,453 7.4 53.9°
Maximum altitude 18:07:05 44° 38° (NE) 1,204 6.5 54.4°
Drops below altitude 10° 18:12:49 10° 109° (ESE) 2,581 8.3 54.8°
Sets 18:15:30 0° 116° (ESE) 3,532 8.9 55.0°
